Content
SEND FEEDBACK

Daily
Averages
Monthly
Summary
Turkey

KILIS, TURKEY


Home > Middle East > Turkey
Elevation: 2093 feet     Latitude: 36 06N     Longitude: 037 24E

WEATHER
 
SELECT A DAY
Number of Records: 207,428;   Date Range: 7/1/96 - 9/16/14
 
SHARE

PRINT THIS DATA

[ ← Previous Day ]
WEATHER ALMANAC - AUGUST 14, 2013
[ Next Day → ]
[ °C ]   °F
Weather ElementAverageHighLow
Temperature86.7 °F98.6 °F (1:50 pm)73.4 °F (5:20 am)
Dewpoint42.8 °F59 °F (12:50 am)33.8 °F (11:20 am)
Humidity23.2 %54 % (12:50 am)10 % (9:00 am)
Barometer29.74 in29.80 in (9:50 am)29.57 in (3:00 am)
Wind Speed4.6 mph10.4 mph (6:20 am)
Wind Gust16.1 mph (7:20 am)
Weather ElementAverage
Visibility6 mi
Wind DirectionS (182.1 °)

Weather ElementTotal
Precipitation---
Cooling Degree Days21 (Base 65)
Growing Degree Days36 (Base 50)
Averaged from 49 records on August 14, 2013
WEATHER CONDITIONS BREAKOUT
WIND DIRECTION BREAKOUT
WEATHER BY HOUR - AUGUST 14, 2013
[ °C ]   °F
Local TimeTemperatureDewpointHumidityBarometerVisibilityWind DirectionWind SpeedGust SpeedPrecipitationEventsConditions
12:50 AM77.0 °F59.0 °F54 %29.77 inCalmClear
1:20 AM77.0 °F59.0 °F54 %29.74 inCalm12.7 mphClear
1:50 AM78.8 °F55.4 °F44 %29.74 inVariable1.2 mphClear
2:20 AM82.4 °F53.6 °F37 %29.74 inNNW (330°)6.9 mphClear
2:50 AM80.6 °F50.0 °F34 %29.74 inVariable2.3 mphClear
3:00 AM81.0 °F50.0 °F24 %29.57 in6.0 miNW (320°)2.3 mph
3:20 AM80.6 °F50.0 °F34 %29.74 inCalmClear
3:50 AM78.8 °F50.0 °F36 %29.74 inNorth (350°)3.5 mphClear
4:20 AM78.8 °F48.2 °F34 %29.74 inNNW (340°)9.2 mphClear
4:50 AM78.8 °F46.4 °F32 %29.74 inNNW (340°)9.2 mphClear
5:20 AM73.4 °F48.2 °F41 %29.74 inCalmClear
5:50 AM78.8 °F44.6 °F30 %29.74 inNorth (350°)4.6 mphClear
6:20 AM78.8 °F42.8 °F28 %29.77 inNNW (340°)10.4 mphClear
6:50 AM78.8 °F42.8 °F28 %29.77 inNNW (340°)3.5 mphClear
7:20 AM82.4 °F42.8 °F25 %29.77 inVariable2.3 mph16.1 mphClear
7:50 AM84.2 °F41.0 °F22 %29.77 inNNW (340°)4.6 mphClear
8:20 AM86.0 °F39.2 °F19 %29.77 inNW (320°)8.1 mphClear
8:50 AM87.8 °F39.2 °F18 %29.77 inNorth (350°)8.1 mphClear
9:00 AM87.0 °F39.0 °F10 %29.62 in6.0 miNorth (350°)8.1 mph
9:20 AM87.8 °F39.2 °F18 %29.77 inNNW (340°)9.2 mphClear
9:50 AM89.6 °F37.4 °F16 %29.80 inNorth (350°)8.1 mphClear
10:20 AM91.4 °F35.6 °F14 %29.80 inNNW (330°)6.9 mphClear
10:50 AM93.2 °F35.6 °F13 %29.80 inNorth (350°)8.1 mphClear
11:20 AM93.2 °F33.8 °F12 %29.77 inVariable1.2 mphClear
11:50 AM95.0 °F39.2 °F14 %29.77 inCalmClear
12:20 PM96.8 °F37.4 °F13 %29.77 inVariable1.2 mphClear
12:50 PM96.8 °F35.6 °F12 %29.77 inCalmClear
1:20 PM96.8 °F37.4 °F13 %29.74 inCalmClear
1:50 PM98.6 °F39.2 °F13 %29.74 inWest (270°)4.6 mphClear
2:20 PM98.6 °F37.4 °F12 %29.74 inVariable2.3 mphClear
2:50 PM98.6 °F37.4 °F12 %29.74 inSW (220°)5.8 mphClear
3:20 PM98.6 °F35.6 °F11 %29.74 inWSW (250°)8.1 mphClear
3:50 PM96.8 °F37.4 °F13 %29.74 inSSW (200°)8.1 mphClear
4:20 PM98.6 °F41.0 °F14 %29.74 inWest (270°)10.4 mphClear
4:50 PM96.8 °F42.8 °F16 %29.71 inWSW (240°)8.1 mphClear
5:20 PM96.8 °F41.0 °F15 %29.71 inWSW (240°)6.9 mphClear
5:50 PM95.0 °F41.0 °F15 %29.71 inSW (230°)8.1 mphClear
6:20 PM93.2 °F41.0 °F16 %29.71 inSW (220°)9.2 mphClear
6:50 PM91.4 °F41.0 °F17 %29.74 inSW (220°)9.2 mphClear
7:20 PM89.6 °F42.8 °F20 %29.74 inSW (230°)8.1 mphClear
7:50 PM87.8 °F41.0 °F19 %29.74 inSW (230°)8.1 mphClear
8:20 PM84.2 °F41.0 °F22 %29.74 inSW (230°)4.6 mphClear
8:50 PM82.4 °F41.0 °F23 %29.77 inCalmClear
9:00 PM83.0 °F40.0 °F13 %29.60 in6.0 miCalm
9:20 PM80.6 °F41.0 °F24 %29.77 inWSW (250°)6.9 mphClear
9:50 PM80.6 °F42.8 °F26 %29.77 inCalmClear
10:50 PM77.0 °F46.4 °F34 %29.74 inCalmClear
11:20 PM75.2 °F46.4 °F36 %29.74 inCalmClear
11:50 PM75.2 °F46.4 °F36 %29.74 inCalmClear
Hourly data recorded from LTAJ, located miles away from Kilis, Turkey







STORIES FROM OUR PARTNERS